GW7216 Weather Reports


time (UTC)temp
F
wind
direction
speed
knots
gust
knots
rain 1hr
in
rain 24hr
in
rain mn
in
humidity
%
barometer
mb
20260507153549 61 63 0.9 5.2 0.00 0.01 0.00 59 1013.7
20260507153503 62 72 1.7 5.2 0.00 0.01 0.01 60 1024.2
20260507153055 62 68 1.7 5.2 0.00 0.01 0.00 58 1013.7
20260507153003 62 80 1.7 5.2 0.00 0.01 0.01 60 1024.3
20260507152548 62 0 0.0 5.2 0.00 0.01 0.00 58 1013.6
20260507152503 62 78 0.9 5.2 0.00 0.01 0.01 60 1024.2
20260507152047 61 71 0.0 4.3 0.00 0.01 0.00 61 1013.6
20260507152003 61 72 1.7 4.3 0.00 0.02 0.01 60 1024.3
20260507151553 60 0 1.7 4.3 0.00 0.01 0.00 61 1013.7
20260507151503 61 73 1.7 4.3 0.00 0.02 0.01 60 1024.3
20260507151049 60 73 1.7 4.3 0.00 0.01 0.00 59 1013.7
20260507151003 61 77 1.7 4.3 0.00 0.02 0.01 59 1024.3
20260507150717 61 79 0.9 4.3 0.00 0.02 0.01 61 1024.3
20260507150547 61 74 0.9 4.3 0.00 0.01 0.00 60 1013.7
20260507150049 61 81 0.0 4.3 0.00 0.01 0.00 60 1013.8
20260507150003 61 80 0.9 4.3 0.00 0.02 0.01 60 1024.3
20260507145546 61 0 0.9 2.6 0.00 0.01 0.00 58 1013.6
20260507145503 61 77 0.9 3.5 0.00 0.02 0.01 60 1024.3
20260507145045 61 74 0.0 3.5 0.00 0.01 0.00 59 1013.7
20260507145003 61 76 0.9 3.5 0.00 0.02 0.01 60 1024.3
20260507144717 61 75 0.9 3.5 0.00 0.02 0.01 59 1024.3
20260507144552 61 73 0.0 3.5 0.00 0.01 0.00 59 1013.7
20260507144046 61 78 0.9 2.6 0.00 0.01 0.00 57 1013.7
20260507144003 61 74 0.9 2.6 0.00 0.02 0.01 57 1024.3
20260507143546 61 74 0.0 2.6 0.00 0.01 0.00 57 1013.7
20260507143503 61 74 0.9 2.6 0.00 0.02 0.01 58 1024.4
20260507143105 61 74 0.0 1.7 0.00 0.01 0.00 61 1013.8
20260507143003 61 74 0.0 2.6 0.00 0.02 0.01 60 1024.3
20260507142545 61 74 0.0 2.6 0.00 0.01 0.00 59 1013.8
20260507142503 61 74 0.9 2.6 0.00 0.02 0.01 60 1024.3
20260507142045 61 74 0.0 2.6 0.00 0.01 0.00 58 1013.8
20260507142003 61 76 0.9 2.6 0.00 0.02 0.01 59 1024.4
20260507141551 60 74 0.0 2.6 0.00 0.01 0.00 60 1013.9
20260507141503 61 80 0.9 5.2 0.00 0.02 0.01 61 1024.5
20260507141047 60 0 0.0 4.3 0.00 0.01 0.00 62 1013.9
20260507141003 60 81 0.9 5.2 0.00 0.02 0.01 62 1024.5
20260507140547 60 0 0.9 5.2 0.00 0.01 0.00 59 1013.9
20260507140503 60 69 1.7 5.2 0.00 0.02 0.01 62 1024.5
20260507140052 60 78 1.7 5.2 0.00 0.01 0.00 58 1013.9
20260507140003 61 60 1.7 5.2 0.00 0.02 0.01 60 1024.5
20260507135717 61 55 0.9 5.2 0.00 0.02 0.01 60 1024.5
20260507135546 60 51 0.0 3.5 0.00 0.01 0.00 61 1013.9
20260507135218 61 47 0.9 5.2 0.00 0.02 0.01 60 1024.5
20260507135046 60 0 0.0 5.2 0.00 0.01 0.00 60 1013.9
20260507134557 60 47 0.9 5.2 0.00 0.01 0.00 61 1014.0
20260507134503 60 46 1.7 5.2 0.00 0.02 0.01 62 1024.5
20260507134046 60 46 1.7 5.2 0.00 0.01 0.00 61 1014.0
20260507134003 60 46 1.7 6.1 0.00 0.02 0.01 62 1024.7
20260507133547 59 0 0.9 6.1 0.00 0.01 0.00 63 1014.1
20260507133503 60 46 0.9 6.1 0.00 0.02 0.01 64 1024.6
20260507133057 59 47 0.9 6.1 0.00 0.01 0.00 64 1014.0
20260507133003 60 53 0.9 6.1 0.00 0.02 0.01 63 1024.6
20260507132546 59 0 0.9 6.1 0.00 0.01 0.00 62 1014.1
20260507132503 60 63 1.7 6.1 0.00 0.02 0.01 63 1024.6
20260507132046 59 65 1.7 3.5 0.00 0.01 0.00 63 1014.1
20260507132003 60 67 0.9 5.2 0.00 0.02 0.01 65 1024.6
20260507131601 59 67 0.9 3.5 0.00 0.01 0.00 63 1014.0
20260507131503 60 68 0.9 5.2 0.00 0.02 0.01 64 1024.6
20260507131046 59 0 0.0 5.2 0.00 0.01 0.00 65 1014.0
20260507131003 60 70 0.9 5.2 0.00 0.02 0.01 63 1024.6
20260507130545 59 69 0.0 5.2 0.00 0.01 0.00 63 1014.1
20260507130503 59 60 0.9 5.2 0.00 0.02 0.01 64 1024.6
20260507130055 59 69 0.0 5.2 0.00 0.01 0.00 64 1014.1
20260507130003 59 48 1.7 6.1 0.00 0.02 0.01 63 1024.6
20260507125546 59 44 1.7 4.3 0.00 0.01 0.00 65 1014.0
20260507125503 59 45 1.7 6.1 0.00 0.02 0.01 66 1024.6
20260507125217 59 51 1.7 6.1 0.00 0.02 0.01 65 1024.7
20260507125046 59 44 0.0 6.1 0.00 0.01 0.00 65 1014.1
20260507124602 59 0 2.6 6.1 0.00 0.01 0.00 66 1014.0
20260507124503 59 49 1.7 6.1 0.00 0.02 0.01 65 1024.6
20260507124045 59 76 0.0 2.6 0.00 0.01 0.00 67 1014.0
20260507124003 59 354 0.9 3.5 0.00 0.02 0.01 67 1024.7
20260507123548 58 360 0.9 3.5 0.00 0.01 0.00 67 1014.0
20260507123503 59 356 0.9 3.5 0.00 0.02 0.01 67 1024.6
20260507123054 59 0 0.0 3.5 0.00 0.01 0.00 66 1014.0
20260507123003 59 15 0.9 4.3 0.00 0.02 0.01 68 1024.6
20260507122546 58 30 0.0 3.5 0.00 0.01 0.00 67 1014.0
20260507122503 59 31 0.9 4.3 0.00 0.02 0.01 67 1024.6
20260507122047 58 0 0.9 4.3 0.00 0.01 0.00 68 1014.0
20260507122003 59 27 1.7 6.1 0.00 0.02 0.01 68 1024.5
20260507121556 58 29 0.9 5.2 0.00 0.01 0.00 67 1013.9
20260507121503 59 26 1.7 6.1 0.00 0.02 0.01 67 1024.5
20260507121217 59 30 1.7 6.1 0.00 0.02 0.01 68 1024.5
20260507121047 58 355 1.7 6.1 0.00 0.01 0.00 68 1013.9
20260507120546 59 0 2.6 6.1 0.00 0.01 0.00 66 1013.9
20260507120503 59 29 1.7 6.1 0.00 0.02 0.01 66 1024.5
20260507120055 59 0 0.9 4.3 0.00 0.01 0.00 67 1013.9
20260507120004 60 9 0.9 4.3 0.00 0.02 0.01 68 1024.4
20260507115546 59 11 0.9 4.3 0.00 0.01 0.00 63 1013.9
20260507115503 60 5 0.9 4.3 0.00 0.02 0.01 66 1024.5
20260507115046 59 342 0.0 3.5 0.00 0.01 0.00 66 1013.9
20260507115003 59 351 0.0 3.5 0.00 0.02 0.01 66 1024.5
20260507114606 59 0 0.9 3.5 0.00 0.01 0.00 65 1013.9
20260507114503 59 347 0.9 3.5 0.00 0.02 0.01 67 1024.5
20260507114046 59 344 0.0 3.5 0.00 0.01 0.00 66 1013.9
20260507114003 59 342 0.9 4.3 0.00 0.02 0.01 66 1024.5
20260507113545 59 0 0.0 3.5 0.00 0.01 0.00 66 1013.9
20260507113503 59 338 0.9 4.3 0.00 0.02 0.01 67 1024.6
20260507113121 58 341 0.0 4.3 0.00 0.01 0.00 69 1013.9
20260507113003 59 309 0.9 4.3 0.00 0.02 0.01 70 1024.5
20260507112547 58 331 0.9 4.3 0.00 0.01 0.00 67 1013.9
20260507112503 59 312 0.9 4.3 0.00 0.02 0.01 67 1024.5
20260507112217 59 333 1.7 5.2 0.00 0.02 0.01 68 1024.5
20260507112046 58 0 0.9 3.5 0.00 0.01 0.00 70 1013.9
20260507111718 59 333 1.7 5.2 0.00 0.02 0.01 68 1024.5
20260507111558 58 290 1.7 3.5 0.00 0.01 0.00 69 1013.9
20260507111046 58 346 0.9 5.2 0.00 0.01 0.00 71 1013.9
20260507111003 58 334 0.9 5.2 0.00 0.02 0.01 70 1024.5
20260507110545 58 341 0.9 5.2 0.00 0.01 0.00 69 1013.9
20260507110503 58 332 0.9 5.2 0.00 0.02 0.01 69 1024.5
20260507110051 57 0 0.0 4.3 0.00 0.01 0.00 69 1013.9
20260507110003 58 24 1.7 4.3 0.00 0.02 0.01 69 1024.6
20260507105546 57 0 1.7 4.3 0.00 0.01 0.00 69 1013.9
20260507105503 58 47 1.7 6.1 0.00 0.02 0.01 70 1024.6
20260507105047 57 41 0.9 5.2 0.00 0.01 0.00 72 1014.0
20260507105003 58 330 1.7 6.1 0.00 0.02 0.01 72 1024.6
20260507104556 57 63 0.9 6.1 0.00 0.01 0.00 69 1013.9
20260507104503 57 284 1.7 7.0 0.00 0.02 0.01 69 1024.5
20260507104047 57 312 1.7 7.0 0.00 0.01 0.00 68 1013.9
20260507104003 58 282 1.7 7.0 0.00 0.02 0.01 69 1024.5
20260507103547 57 305 0.0 7.0 0.00 0.01 0.00 69 1013.8
20260507103503 58 300 1.7 7.0 0.00 0.02 0.01 70 1024.5
20260507103056 58 265 1.7 7.0 0.00 0.01 0.00 68 1013.9
20260507103003 58 4 0.9 7.0 0.00 0.02 0.01 69 1024.5
20260507102546 57 23 0.0 4.3 0.00 0.01 0.00 72 1013.9
20260507102503 57 9 0.9 4.3 0.00 0.02 0.01 71 1024.4
20260507102216 57 321 1.7 4.3 0.00 0.02 0.01 71 1024.5
20260507102045 56 0 0.9 4.3 0.00 0.01 0.00 70 1013.9
20260507101553 56 0 1.7 4.3 0.00 0.01 0.00 69 1013.9
20260507101503 57 291 0.9 4.3 0.00 0.02 0.01 70 1024.5
20260507101216 57 300 0.9 3.5 0.00 0.02 0.01 72 1024.5
20260507101043 56 310 0.0 1.7 0.00 0.01 0.00 72 1013.9
20260507100717 56 317 0.0 2.6 0.00 0.02 0.01 74 1024.5
20260507100543 56 0 0.0 2.6 0.00 0.01 0.00 73 1013.8
20260507100057 56 0 0.0 2.6 0.00 0.01 0.00 74 1013.8
20260507100003 56 323 0.0 2.6 0.00 0.02 0.01 74 1024.4
20260507095717 56 330 0.0 5.2 0.00 0.02 0.01 74 1024.5
20260507095545 56 0 0.0 2.6 0.00 0.01 0.00 73 1013.9
20260507095045 56 0 0.0 4.3 0.00 0.01 0.00 74 1013.8
20260507095003 56 350 0.9 5.2 0.00 0.02 0.01 74 1024.4
20260507094717 56 346 0.9 7.0 0.00 0.02 0.01 75 1024.4
20260507094550 56 355 0.0 5.2 0.00 0.01 0.00 75 1013.8
20260507094045 55 0 1.7 5.2 0.00 0.01 0.00 73 1013.8
20260507094003 56 280 1.7 7.0 0.00 0.02 0.01 74 1024.4
20260507093541 55 265 0.9 7.0 0.00 0.01 0.00 76 1013.8
20260507093503 55 260 1.7 7.0 0.00 0.02 0.01 76 1024.3
20260507093056 54 0 2.6 7.0 0.00 0.01 0.00 75 1013.7
20260507093003 55 257 2.6 7.0 0.00 0.02 0.01 76 1024.3
20260507092547 54 253 2.6 6.1 0.00 0.01 0.00 77 1013.7
20260507092503 55 267 1.7 6.1 0.00 0.02 0.01 78 1024.3
20260507092046 54 284 0.9 6.1 0.00 0.01 0.00 78 1013.7
20260507092003 54 278 1.7 6.1 0.00 0.02 0.01 78 1024.3
20260507091717 54 273 2.6 6.1 0.00 0.02 0.01 79 1024.3
20260507091630 54 0 1.7 6.1 0.00 0.01 0.00 77 1013.7
20260507091045 54 267 1.7 5.2 0.00 0.01 0.00 78 1013.7
20260507091003 54 274 1.7 5.2 0.00 0.02 0.01 78 1024.2
20260507090544 54 277 0.9 3.5 0.00 0.01 0.00 77 1013.6
20260507090503 54 279 0.9 6.1 0.00 0.02 0.01 78 1024.2
20260507090050 54 279 0.0 6.1 0.00 0.01 0.00 78 1013.6
20260507090004 54 279 0.9 6.1 0.00 0.02 0.01 79 1024.2
20260507085545 53 279 0.0 6.1 0.00 0.01 0.00 80 1013.6
20260507085503 54 276 0.9 7.8 0.00 0.02 0.01 80 1024.1
20260507085043 53 278 0.9 6.1 0.00 0.01 0.00 79 1013.5
20260507085003 54 276 1.7 7.8 0.00 0.02 0.01 79 1024.1
20260507084604 54 276 0.9 7.8 0.00 0.01 0.00 79 1013.4
20260507084503 54 278 1.7 7.8 0.00 0.02 0.01 80 1024.1
20260507084041 54 270 2.6 7.8 0.00 0.01 0.00 78 1013.5
20260507084003 54 284 0.9 7.8 0.00 0.02 0.01 79 1024.1
20260507083547 54 0 0.0 2.6 0.00 0.01 0.00 79 1013.5
20260507083503 54 355 0.0 4.3 0.00 0.02 0.01 80 1024.1
20260507083054 53 355 0.0 4.3 0.00 0.01 0.00 79 1013.5
20260507083003 54 4 0.0 4.3 0.00 0.02 0.01 80 1024.0
20260507082542 53 0 0.0 4.3 0.00 0.01 0.00 80 1013.5
20260507082503 54 4 0.9 4.3 0.00 0.02 0.01 80 1024.0
20260507082217 53 354 0.9 4.3 0.00 0.02 0.01 82 1024.0
20260507082041 53 0 0.9 4.3 0.00 0.01 0.00 81 1013.3
20260507081716 53 304 0.9 4.3 0.00 0.02 0.01 81 1024.0
20260507081558 52 278 0.0 3.5 0.00 0.01 0.00 81 1013.4
20260507081217 53 272 0.9 3.5 0.00 0.02 0.01 81 1023.9
20260507081043 52 0 0.0 3.5 0.00 0.01 0.00 81 1013.3
20260507080716 52 270 0.9 3.5 0.00 0.02 0.01 81 1023.8
20260507080542 52 273 0.0 3.5 0.00 0.01 0.00 81 1013.2
20260507080048 52 0 0.9 3.5 0.00 0.01 0.00 82 1013.2
20260507080003 52 268 0.9 3.5 0.00 0.02 0.01 82 1023.8
20260507075544 51 0 0.0 3.5 0.00 0.01 0.00 82 1013.2
20260507075503 52 272 0.9 3.5 0.00 0.02 0.01 82 1023.8
20260507075045 51 267 0.9 3.5 0.00 0.01 0.00 82 1013.2
20260507075003 52 284 0.9 3.5 0.00 0.02 0.01 82 1023.8
20260507074550 51 0 0.0 1.7 0.00 0.01 0.00 83 1013.1
20260507074503 52 37 0.0 1.7 0.00 0.02 0.01 84 1023.8
20260507074048 51 38 0.0 1.7 0.00 0.01 0.00 83 1013.2
20260507074003 51 38 0.0 1.7 0.00 0.02 0.01 84 1023.8
20260507073544 51 0 0.0 1.7 0.00 0.01 0.00 84 1013.2
20260507073503 51 38 0.0 4.3 0.00 0.02 0.01 84 1023.8
20260507073055 50 0 0.0 3.5 0.00 0.01 0.00 85 1013.1
20260507073003 51 38 0.9 4.3 0.00 0.02 0.01 85 1023.7
20260507072543 50 0 0.9 4.3 0.00 0.01 0.00 84 1013.1
20260507072503 50 37 1.7 4.3 0.00 0.02 0.01 85 1023.7
20260507072044 50 38 0.9 4.3 0.00 0.01 0.00 84 1013.1
20260507072003 50 35 1.7 4.3 0.00 0.02 0.01 85 1023.7
20260507071552 50 35 1.7 4.3 0.00 0.01 0.00 84 1013.1
20260507071503 50 34 1.7 4.3 0.00 0.02 0.01 85 1023.7
20260507071042 49 0 0.9 3.5 0.00 0.01 0.00 85 1013.0
20260507071003 50 34 0.9 4.3 0.00 0.02 0.01 86 1023.7
20260507070542 49 34 0.0 2.6 0.00 0.01 0.00 86 1013.1
20260507070503 50 34 0.0 4.3 0.00 0.02 0.01 86 1023.7
20260507070059 49 34 0.0 4.3 0.00 0.01 0.00 86 1013.1
20260507070005 50 35 0.9 4.3 0.00 0.02 0.01 86 1023.7
20260507065541 49 0 0.9 4.3 0.00 0.01 0.00 86 1013.0
20260507065503 50 29 0.9 4.3 0.00 0.02 0.01 87 1023.5
20260507065043 49 47 0.0 3.5 0.00 0.01 0.00 87 1013.0
20260507065003 50 357 0.9 3.5 0.00 0.02 0.01 87 1023.6
20260507064718 50 334 0.9 3.5 0.00 0.02 0.01 88 1023.6
20260507064552 49 355 0.0 3.5 0.00 0.01 0.00 87 1012.9
20260507064047 49 0 0.0 1.7 0.00 0.01 0.00 88 1012.9
20260507064003 50 312 0.0 2.6 0.00 0.02 0.01 88 1023.5
20260507063542 49 0 0.0 1.7 0.00 0.01 0.00 88 1013.0
20260507063503 50 311 0.0 1.7 0.00 0.02 0.01 89 1023.4
20260507063050 49 0 0.0 1.7 0.00 0.01 0.00 88 1012.9
20260507063003 50 311 0.0 1.7 0.00 0.02 0.01 89 1023.4
20260507062544 49 0 0.0 1.7 0.00 0.01 0.00 88 1012.8
20260507062503 50 311 0.0 1.7 0.00 0.02 0.01 89 1023.4
20260507062044 50 0 0.0 1.7 0.00 0.01 0.00 90 1012.7
20260507062003 50 311 0.0 1.7 0.00 0.02 0.01 90 1023.3
20260507061552 50 0 0.0 1.7 0.00 0.01 0.00 91 1012.6
20260507061503 50 308 0.0 1.7 0.00 0.02 0.01 91 1023.2
20260507061047 50 0 0.0 1.7 0.00 0.01 0.00 90 1012.6
20260507061003 50 308 0.0 1.7 0.00 0.02 0.01 91 1023.1
20260507060544 49 0 0.0 1.7 0.00 0.01 0.00 91 1012.4
20260507060503 50 308 0.0 2.6 0.00 0.02 0.01 91 1023.1
20260507060100 49 0 0.0 1.7 0.00 0.01 0.00 90 1012.4
20260507060003 50 308 0.9 2.6 0.00 0.02 0.01 91 1023.0
20260507055544 49 0 0.0 2.6 0.00 0.01 0.00 90 1012.4
20260507055503 50 308 0.0 2.6 0.00 0.02 0.01 91 1023.0
20260507055043 49 308 0.0 2.6 0.00 0.01 0.00 90 1012.3
20260507055003 50 308 0.9 2.6 0.00 0.02 0.01 91 1022.9
20260507054549 49 0 0.0 2.6 0.00 0.01 0.00 90 1012.3
20260507054503 50 308 0.9 2.6 0.00 0.02 0.01 91 1022.9
20260507054047 49 0 0.0 2.6 0.00 0.01 0.00 90 1012.3
20260507054003 50 308 0.9 2.6 0.00 0.02 0.01 91 1022.8
20260507053545 49 0 0.0 2.6 0.00 0.01 0.00 90 1012.3
20260507053503 50 308 0.9 2.6 0.00 0.02 0.01 91 1022.9
20260507053053 49 308 0.0 2.6 0.00 0.01 0.00 91 1012.3
20260507053003 50 309 0.9 2.6 0.00 0.02 0.01 91 1022.8
20260507052546 49 309 0.9 2.6 0.00 0.01 0.00 91 1012.1
20260507052503 50 309 0.9 2.6 0.00 0.02 0.01 91 1022.7
20260507052044 49 0 0.0 2.6 0.00 0.01 0.00 91 1012.1
20260507052003 50 309 0.9 2.6 0.00 0.02 0.01 91 1022.7
20260507051553 49 0 0.0 2.6 0.00 0.01 0.00 91 1012.0
20260507051503 50 312 0.9 2.6 0.00 0.02 0.01 91 1022.6
20260507051216 49 307 0.9 2.6 0.00 0.02 0.01 91 1022.6
20260507051041 49 0 0.9 2.6 0.00 0.01 0.00 91 1011.9
20260507050546 49 0 0.0 1.7 0.00 0.01 0.00 91 1011.9
20260507050503 49 263 0.0 1.7 0.00 0.02 0.01 91 1022.5
20260507050049 49 0 0.0 1.7 0.00 0.01 0.00 91 1011.9
20260507050003 49 263 0.0 1.7 0.00 0.02 0.01 91 1022.4
20260507045717 49 263 0.0 1.7 0.00 0.02 0.01 91 1022.4
20260507045544 49 0 0.0 1.7 0.00 0.01 0.00 91 1011.8
20260507045216 49 263 0.0 1.7 0.00 0.02 0.01 91 1022.4
20260507045041 49 263 0.0 1.7 0.00 0.01 0.00 91 1011.8
20260507044605 49 0 0.0 1.7 0.00 0.01 0.00 91 1011.8
20260507044503 49 263 0.0 1.7 0.00 0.02 0.01 91 1022.4
20260507044044 49 0 0.0 0.9 0.00 0.01 0.00 91 1011.7
20260507044003 49 263 0.0 0.9 0.00 0.02 0.01 91 1022.2
20260507043544 49 0 0.0 0.9 0.00 0.01 0.00 91 1011.6
20260507043503 49 263 0.0 0.9 0.00 0.02 0.01 91 1022.3
20260507043103 49 0 0.0 0.0 0.00 0.01 0.00 91 1011.6
20260507043003 49 0 0.0 0.0 0.00 0.02 0.01 91 1022.2
20260507042541 49 0 0.0 0.0 0.00 0.01 0.00 91 1011.6
20260507042503 49 0 0.0 1.7 0.00 0.02 0.01 91 1022.2
20260507042218 49 0 0.0 1.7 0.00 0.02 0.01 91 1022.1
20260507042049 49 0 0.0 0.0 0.00 0.01 0.00 91 1011.5
20260507041558 49 0 0.0 1.7 0.00 0.01 0.00 91 1011.5
20260507041503 49 263 0.0 2.6 0.00 0.02 0.01 91 1022.1
20260507041218 49 263 0.0 2.6 0.00 0.02 0.01 91 1022.0
20260507041046 49 0 0.0 1.7 0.00 0.01 0.00 91 1011.5
20260507040546 49 263 0.0 2.6 0.00 0.01 0.00 91 1011.5
20260507040503 49 263 0.9 2.6 0.00 0.02 0.01 91 1022.0
20260507040052 49 0 0.0 2.6 0.00 0.01 0.00 91 1011.4
20260507040003 49 263 0.9 2.6 0.00 0.02 0.01 91 1022.0
20260507035545 49 263 0.0 2.6 0.00 0.01 0.00 91 1011.4
20260507035503 49 263 0.9 2.6 0.00 0.02 0.01 91 1021.9
20260507035048 49 263 0.0 1.7 0.00 0.01 0.00 91 1011.4
20260507035003 49 263 0.9 1.7 0.00 0.02 0.01 91 1021.9
20260507034555 49 0 0.0 1.7 0.00 0.01 0.00 91 1011.3
20260507034503 49 263 0.0 1.7 0.00 0.02 0.01 91 1022.0
20260507034045 49 0 0.0 1.7 0.00 0.01 0.00 91 1011.3
20260507034003 49 263 0.0 1.7 0.00 0.02 0.01 91 1021.9
20260507033548 49 0 0.0 1.7 0.00 0.01 0.00 90 1011.3
20260507033503 49 263 0.0 1.7 0.00 0.02 0.01 91 1021.9
20260507033056 49 0 0.0 1.7 0.00 0.01 0.00 90 1011.3
20260507033003 49 263 0.0 1.7 0.00 0.02 0.01 91 1021.9
20260507032549 49 0 0.0 1.7 0.00 0.01 0.00 90 1011.3
20260507032503 49 263 0.0 1.7 0.00 0.02 0.01 91 1021.9
20260507032047 49 263 0.0 1.7 0.00 0.01 0.00 91 1011.2
20260507032003 49 263 0.0 1.7 0.01 0.02 0.01 91 1021.8
20260507031557 49 0 0.0 0.9 0.00 0.01 0.00 91 1011.2
20260507031504 49 263 0.0 1.7 0.01 0.02 0.01 91 1021.7
20260507031218 49 263 0.0 1.7 0.01 0.02 0.01 91 1021.7
20260507031048 49 0 0.0 1.7 0.00 0.01 0.00 91 1011.2
20260507030547 49 0 0.0 1.7 0.00 0.01 0.00 90 1011.1
20260507030503 49 263 0.0 2.6 0.01 0.02 0.01 91 1021.7
20260507030051 49 0 0.0 1.7 0.00 0.01 0.00 90 1011.1
20260507030003 49 263 0.0 2.6 0.01 0.02 0.01 91 1021.7
20260507025717 49 263 0.0 2.6 0.01 0.02 0.01 91 1021.7
20260507025545 49 0 0.0 2.6 0.00 0.01 0.00 90 1011.1
20260507025050 49 0 0.0 2.6 0.00 0.01 0.00 90 1011.2
20260507025003 49 263 0.9 5.2 0.01 0.02 0.01 91 1021.7
20260507024555 49 263 0.0 1.7 0.00 0.01 0.00 90 1011.1
20260507024503 49 263 0.9 5.2 0.01 0.02 0.01 91 1021.7
20260507024047 49 0 0.0 5.2 0.00 0.01 0.00 90 1011.1
20260507024003 49 262 0.9 5.2 0.01 0.02 0.01 91 1021.7
20260507023545 49 0 0.9 5.2 0.00 0.01 0.00 90 1011.1
20260507023503 50 262 0.9 5.2 0.01 0.02 0.01 91 1021.7
20260507023108 49 261 0.0 1.7 0.00 0.01 0.00 90 1011.1
20260507023003 50 261 0.0 1.7 0.01 0.02 0.01 91 1021.6
20260507022545 49 0 0.0 1.7 0.00 0.01 0.00 90 1011.1
20260507022503 50 261 0.9 3.5 0.01 0.02 0.01 91 1021.7
20260507022047 49 261 0.0 2.6 0.00 0.00 0.00 90 1011.1
20260507022003 50 261 0.9 3.5 0.00 0.01 0.00 91 1021.6
20260507021716 50 261 0.9 3.5 0.00 0.01 0.00 90 1021.7
20260507021552 49 0 0.9 3.5 0.00 0.00 0.00 90 1011.0
20260507021047 49 261 0.9 3.5 0.00 0.00 0.00 90 1011.0
20260507021003 50 261 0.9 3.5 0.00 0.01 0.00 90 1021.6
20260507020547 49 0 0.9 2.6 0.00 0.00 0.00 90 1011.0
20260507020503 50 261 0.9 2.6 0.00 0.01 0.00 90 1021.5
20260507020059 49 0 0.0 2.6 0.00 0.00 0.00 90 1011.0
20260507020003 50 261 0.0 2.6 0.00 0.01 0.00 90 1021.5
20260507015547 49 0 0.0 2.6 0.00 0.00 0.00 90 1010.9
20260507015503 50 261 0.0 2.6 0.00 0.01 0.00 90 1021.5
20260507015047 49 0 0.0 1.7 0.00 0.00 0.00 90 1010.9
20260507015003 50 261 0.0 1.7 0.00 0.01 0.00 90 1021.4
20260507014558 49 0 0.0 1.7 0.00 0.00 0.00 90 1010.8
20260507014503 50 261 0.9 1.7 0.00 0.01 0.00 90 1021.4
20260507014217 50 261 0.9 1.7 0.00 0.01 0.00 90 1021.3
20260507014046 49 261 0.0 1.7 0.00 0.00 0.00 90 1010.8
20260507013548 49 0 0.0 2.6 0.00 0.00 0.00 90 1010.7
20260507013503 50 261 0.9 2.6 0.00 0.01 0.00 90 1021.2
20260507013053 49 0 0.0 2.6 0.00 0.00 0.00 90 1010.6
20260507013003 50 261 0.0 2.6 0.00 0.01 0.00 90 1021.1
20260507012718 50 261 0.9 2.6 0.00 0.01 0.00 90 1021.1
20260507012549 49 261 0.0 2.6 0.00 0.00 0.00 90 1010.6
20260507012048 49 0 0.9 2.6 0.00 0.00 0.00 90 1010.6
20260507012003 50 261 0.9 3.5 0.00 0.01 0.00 90 1021.1
20260507011718 50 261 0.9 3.5 0.00 0.01 0.00 90 1021.0
20260507011551 49 261 0.0 3.5 0.00 0.00 0.00 90 1010.4
20260507011046 49 261 0.9 3.5 0.00 0.00 0.00 90 1010.4
20260507010547 49 261 0.9 3.5 0.00 0.00 0.00 89 1010.4
20260507010503 50 261 1.7 3.5 0.00 0.01 0.00 90 1021.0
20260507010052 49 261 0.9 2.6 0.00 0.00 0.00 89 1010.4
20260507010003 50 261 0.9 2.6 0.00 0.01 0.00 90 1021.0
20260507005548 49 261 0.9 2.6 0.00 0.01 0.00 89 1010.4
20260507005503 50 261 0.9 2.6 0.00 0.01 0.00 90 1021.0
20260507005049 49 261 0.9 2.6 0.00 0.01 0.00 89 1010.4
20260507005003 50 261 0.9 2.6 0.00 0.01 0.00 90 1020.9
20260507004550 49 0 0.0 2.6 0.00 0.01 0.00 89 1010.4
20260507004503 50 261 0.9 5.2 0.00 0.02 0.00 90 1020.9
20260507004047 49 261 0.9 3.5 0.00 0.01 0.00 89 1010.3
20260507004003 50 261 1.7 5.2 0.00 0.02 0.00 90 1020.9
20260507003548 49 261 0.9 5.2 0.00 0.01 0.00 89 1010.3
20260507003503 50 260 1.7 5.2 0.00 0.02 0.00 90 1021.0
20260507003106 49 260 1.7 5.2 0.00 0.01 0.00 89 1010.3
20260507003003 50 261 1.7 5.2 0.00 0.02 0.00 90 1020.9
20260507002547 49 261 1.7 5.2 0.00 0.01 0.00 89 1010.3
20260507002503 50 260 1.7 3.5 0.00 0.02 0.00 90 1020.9
20260507002216 50 260 1.7 5.2 0.00 0.02 0.00 90 1020.9
20260507002048 49 261 1.7 5.2 0.00 0.01 0.00 89 1010.3
20260507001613 49 259 1.7 5.2 0.00 0.01 0.00 89 1010.2
20260507001503 50 258 1.7 5.2 0.00 0.02 0.00 90 1020.9
20260507001045 49 258 0.9 3.5 0.00 0.01 0.00 89 1010.3
20260507001003 50 258 1.7 3.5 0.00 0.02 0.00 90 1020.8
20260507000550 49 258 1.7 3.5 0.00 0.01 0.00 89 1010.3
20260507000503 50 257 1.7 3.5 0.00 0.02 0.00 90 1020.8
20260507000055 49 257 0.9 5.2 0.00 0.01 0.00 89 1010.3
20260507000003 50 257 1.7 5.2 0.00 0.02 0.00 89 1020.9
20260506235548 49 257 0.9 5.2 0.00 0.01 0.00 89 1010.3
20260506235503 50 258 1.7 5.2 0.00 0.02 0.00 89 1020.9
20260506235046 49 257 1.7 4.3 0.00 0.01 0.00 89 1010.3
20260506235003 50 258 1.7 4.3 0.00 0.02 0.00 89 1020.8
20260506234555 49 259 0.9 5.2 0.00 0.01 0.00 89 1010.3
20260506234503 50 258 1.7 5.2 0.00 0.02 0.00 89 1020.9
20260506234048 49 259 1.7 5.2 0.00 0.01 0.00 89 1010.3
20260506234003 50 258 1.7 5.2 0.00 0.02 0.00 89 1020.8
20260506233546 49 257 1.7 5.2 0.00 0.01 0.00 89 1010.2
20260506233503 50 257 1.7 5.2 0.00 0.02 0.00 89 1020.8
20260506233054 49 258 1.7 5.2 0.00 0.01 0.00 89 1010.2
20260506233003 50 257 1.7 5.2 0.00 0.02 0.00 89 1020.8
20260506232717 50 258 1.7 6.1 0.00 0.02 0.00 89 1020.7
20260506232547 49 0 1.7 5.2 0.00 0.01 0.00 89 1010.2
20260506232047 49 257 1.7 6.1 0.00 0.01 0.00 89 1010.1
20260506232003 50 258 2.6 6.1 0.00 0.02 0.00 89 1020.7
20260506231559 49 259 1.7 6.1 0.00 0.01 0.00 89 1010.1
20260506231503 50 256 2.6 6.1 0.00 0.02 0.00 89 1020.5
20260506231047 49 253 1.7 6.1 0.00 0.01 0.00 89 1010.0
20260506231003 50 254 2.6 6.1 0.00 0.02 0.00 89 1020.5
20260506230546 49 257 2.6 4.3 0.00 0.01 0.00 89 1009.9
20260506230503 50 251 2.6 6.1 0.00 0.02 0.00 89 1020.5
20260506230113 49 254 1.7 4.3 0.00 0.01 0.00 89 1009.9
20260506230003 50 249 2.6 6.1 0.00 0.02 0.00 89 1020.5
20260506225550 49 246 1.7 6.1 0.00 0.01 0.00 89 1009.8
20260506225503 50 256 2.6 6.1 0.00 0.02 0.00 89 1020.5
20260506225218 50 263 2.6 6.1 0.00 0.02 0.00 89 1020.4
20260506225046 50 258 1.7 6.1 0.00 0.01 0.00 89 1009.9
20260506224554 50 266 2.6 6.1 0.00 0.01 0.00 89 1009.8
20260506224503 50 273 2.6 7.0 0.00 0.02 0.00 89 1020.3
20260506224045 50 271 1.7 5.2 0.00 0.01 0.00 89 1009.8
20260506224003 50 276 1.7 7.0 0.00 0.02 0.00 89 1020.4
20260506223717 50 275 1.7 6.1 0.00 0.02 0.00 89 1020.4
20260506223548 50 275 1.7 7.0 0.00 0.01 0.00 89 1009.8
20260506223051 50 275 1.7 7.0 0.00 0.01 0.00 89 1009.8
20260506223003 50 267 2.6 7.0 0.00 0.02 0.00 89 1020.3
20260506222546 50 257 1.7 5.2 0.00 0.01 0.00 89 1009.7
20260506222503 50 264 1.7 5.2 0.00 0.02 0.00 89 1020.3
20260506222047 50 263 0.9 5.2 0.00 0.01 0.00 88 1009.7
20260506222003 50 261 1.7 5.2 0.00 0.02 0.00 89 1020.3
20260506221605 50 261 0.9 3.5 0.00 0.01 0.00 88 1009.6
20260506221503 50 261 1.7 3.5 0.00 0.02 0.00 89 1020.2
20260506221047 50 261 0.9 3.5 0.00 0.01 0.00 88 1009.5
20260506221003 50 261 1.7 5.2 0.00 0.02 0.00 89 1020.1
20260506220547 50 261 1.7 3.5 0.00 0.01 0.00 88 1009.5
20260506220503 50 263 2.6 5.2 0.00 0.02 0.00 89 1020.1
20260506220055 50 263 1.7 5.2 0.00 0.01 0.00 88 1009.4
20260506220003 50 265 2.6 5.2 0.00 0.02 0.00 89 1019.9
20260506215716 51 265 2.6 5.2 0.00 0.02 0.02 89 1020.0
20260506215546 50 267 1.7 5.2 0.00 0.01 0.01 88 1009.4
20260506215049 50 261 1.7 5.2 0.00 0.01 0.01 88 1009.4
20260506215003 51 269 1.7 5.2 0.00 0.02 0.02 89 1020.0
20260506214557 50 273 1.7 5.2 0.00 0.01 0.01 88 1009.4
20260506214503 51 270 1.7 5.2 0.00 0.02 0.02 89 1019.9
20260506214046 50 271 1.7 5.2 0.00 0.01 0.01 88 1009.3
20260506214003 51 269 1.7 5.2 0.00 0.02 0.02 89 1019.8
20260506213546 50 268 1.7 5.2 0.00 0.01 0.01 88 1009.3
20260506213503 51 267 1.7 5.2 0.00 0.02 0.02 89 1019.8
20260506213106 50 267 0.9 5.2 0.00 0.01 0.01 88 1009.2
20260506213003 51 264 1.7 6.1 0.00 0.02 0.02 89 1019.7
20260506212546 50 262 1.7 6.1 0.00 0.01 0.01 89 1009.2
20260506212503 51 266 1.7 6.1 0.00 0.02 0.02 89 1019.7
20260506212217 51 268 2.6 6.1 0.00 0.02 0.02 89 1019.7
20260506212047 50 271 1.7 6.1 0.00 0.01 0.01 89 1009.2
20260506211716 51 270 1.7 6.1 0.00 0.02 0.02 89 1019.7
20260506211554 51 270 1.7 6.1 0.00 0.01 0.01 89 1009.2
20260506211048 51 270 1.7 5.2 0.00 0.01 0.01 89 1009.2
20260506211003 51 267 1.7 5.2 0.00 0.02 0.02 89 1019.6
20260506210546 51 269 1.7 5.2 0.00 0.01 0.01 89 1009.1
20260506210503 51 263 1.7 7.0 0.00 0.02 0.02 89 1019.7
20260506210058 51 0 1.7 5.2 0.00 0.01 0.01 89 1009.1
20260506210003 51 260 1.7 7.0 0.00 0.02 0.02 89 1019.6
20260506205551 51 0 1.7 7.0 0.00 0.01 0.01 89 1008.9
20260506205503 51 261 2.6 7.0 0.00 0.02 0.02 89 1019.6
20260506205048 51 257 2.6 7.0 0.00 0.01 0.01 89 1009.0
20260506205003 51 264 2.6 7.0 0.00 0.02 0.02 89 1019.6
20260506204557 51 264 1.7 6.1 0.00 0.01 0.01 89 1008.9
20260506204503 51 264 2.6 6.1 0.00 0.02 0.02 90 1019.4
20260506204047 51 261 1.7 6.1 0.00 0.01 0.01 89 1008.9
20260506204003 51 262 2.6 6.1 0.00 0.02 0.02 90 1019.5
20260506203718 51 261 1.7 6.1 0.00 0.02 0.02 90 1019.5
20260506203547 51 264 1.7 6.1 0.00 0.01 0.01 89 1008.8
20260506203116 51 258 0.9 5.2 0.00 0.01 0.01 89 1008.9
20260506203003 51 258 1.7 5.2 0.00 0.02 0.02 90 1019.4
20260506202547 51 259 1.7 5.2 0.00 0.01 0.01 89 1008.8
20260506202503 51 259 1.7 5.2 0.00 0.02 0.02 90 1019.4
20260506202046 51 0 1.7 5.2 0.00 0.01 0.01 89 1008.8
20260506202003 51 260 1.7 5.2 0.00 0.02 0.02 90 1019.3
20260506201554 51 261 0.9 5.2 0.00 0.01 0.01 89 1008.7
20260506201503 51 261 1.7 5.2 0.00 0.02 0.02 90 1019.3
20260506201049 51 261 1.7 5.2 0.00 0.01 0.01 89 1008.7
20260506201003 51 262 1.7 5.2 0.00 0.02 0.02 90 1019.3
20260506200554 51 264 0.9 5.2 0.00 0.01 0.01 89 1008.7
20260506200503 51 262 1.7 5.2 0.00 0.02 0.02 90 1019.3
20260506200057 51 264 1.7 5.2 0.00 0.01 0.01 89 1008.7
20260506200003 51 261 1.7 5.2 0.00 0.02 0.02 90 1019.2
20260506195546 51 259 0.9 3.5 0.00 0.01 0.01 89 1008.7
20260506195503 51 261 1.7 3.5 0.00 0.02 0.02 90 1019.2
20260506195046 51 261 0.9 3.5 0.00 0.01 0.01 89 1008.6
20260506195003 51 261 1.7 5.2 0.00 0.02 0.02 90 1019.2
20260506194555 51 261 0.9 3.5 0.00 0.01 0.01 89 1008.6
20260506194503 51 261 0.9 5.2 0.00 0.02 0.02 90 1019.1
20260506194045 51 261 0.0 5.2 0.00 0.01 0.01 89 1008.5
20260506194003 51 261 0.9 5.2 0.00 0.02 0.02 90 1019.1
20260506193718 51 260 0.9 5.2 0.00 0.02 0.02 90 1019.1
20260506193545 51 261 1.7 5.2 0.00 0.01 0.01 89 1008.5
20260506193104 51 0 0.0 3.5 0.00 0.01 0.01 89 1008.3
20260506193003 52 259 0.9 5.2 0.00 0.02 0.02 90 1019.0
20260506192547 51 259 0.9 5.2 0.00 0.01 0.01 89 1008.3
20260506192503 52 259 1.7 5.2 0.00 0.02 0.02 90 1018.9
20260506192045 51 259 0.9 5.2 0.00 0.01 0.01 89 1008.3
20260506192003 52 260 1.7 5.2 0.00 0.02 0.02 89 1018.8
20260506191557 51 260 1.7 5.2 0.00 0.01 0.01 89 1008.1
20260506191503 52 259 1.7 5.2 0.00 0.02 0.02 89 1018.8
20260506191047 51 259 1.7 5.2 0.00 0.01 0.01 88 1008.1
20260506191003 52 259 1.7 5.2 0.00 0.02 0.02 89 1018.6
20260506190546 51 260 0.9 3.5 0.00 0.01 0.01 88 1008.0
20260506190503 52 259 1.7 3.5 0.00 0.02 0.02 89 1018.5
20260506190055 51 259 0.9 3.5 0.00 0.01 0.01 88 1007.9
20260506190003 52 258 1.7 5.2 0.00 0.02 0.02 89 1018.5
20260506185546 52 259 1.7 3.5 0.00 0.01 0.01 88 1007.9
20260506185503 52 258 1.7 5.2 0.00 0.02 0.02 89 1018.4
20260506185046 52 259 0.9 5.2 0.00 0.01 0.01 88 1007.8
20260506185003 52 261 1.7 5.2 0.00 0.02 0.02 89 1018.4
20260506184556 52 262 1.7 5.2 0.00 0.01 0.01 88 1007.7
20260506184503 52 263 1.7 5.2 0.00 0.02 0.02 88 1018.3
20260506184047 52 264 1.7 3.5 0.00 0.01 0.01 88 1007.7
20260506184003 52 266 1.7 5.2 0.00 0.02 0.02 88 1018.2
20260506183549 52 0 1.7 5.2 0.00 0.01 0.01 87 1007.6
20260506183503 52 266 1.7 5.2 0.00 0.02 0.02 88 1018.2
20260506183100 52 0 0.0 5.2 0.00 0.01 0.01 87 1007.6
20260506183003 52 265 1.7 7.0 0.00 0.02 0.02 88 1018.1
20260506182545 52 265 1.7 5.2 0.00 0.01 0.01 87 1007.6
20260506182503 52 263 1.7 7.0 0.00 0.02 0.02 88 1018.1
20260506182216 52 263 2.6 7.0 0.00 0.02 0.02 87 1018.0
20260506182047 52 263 1.7 7.0 0.00 0.01 0.01 87 1007.5
20260506181556 52 265 2.6 7.0 0.00 0.01 0.01 87 1007.4
20260506181503 52 265 2.6 7.0 0.00 0.02 0.02 87 1017.9
20260506181046 52 275 2.6 7.0 0.00 0.01 0.01 86 1007.2
20260506181003 52 265 2.6 8.7 0.00 0.02 0.02 87 1017.9
20260506180550 52 267 1.7 8.7 0.00 0.01 0.01 86 1007.2
20260506180503 52 267 2.6 8.7 0.00 0.02 0.02 87 1017.8
20260506180218 52 266 2.6 8.7 0.00 0.02 0.02 87 1017.9
20260506180054 52 269 1.7 8.7 0.00 0.01 0.01 86 1007.3
20260506175547 52 256 2.6 8.7 0.00 0.01 0.01 86 1007.3
20260506175503 53 263 2.6 8.7 0.00 0.02 0.02 87 1017.8
20260506175049 52 263 1.7 5.2 0.00 0.01 0.01 86 1007.1
20260506175003 53 267 1.7 6.1 0.00 0.02 0.02 87 1017.7
20260506174551 52 265 1.7 6.1 0.00 0.01 0.01 86 1007.2
20260506174503 53 270 1.7 6.1 0.00 0.02 0.02 87 1017.6
20260506174047 52 272 0.9 6.1 0.00 0.01 0.01 86 1007.0
20260506174003 53 270 1.7 6.1 0.00 0.02 0.02 87 1017.6
20260506173717 53 270 1.7 6.1 0.00 0.02 0.02 86 1017.5
20260506173547 52 271 0.9 3.5 0.00 0.01 0.01 86 1007.0
20260506173058 53 269 0.9 5.2 0.00 0.01 0.01 86 1007.0
20260506173003 53 270 1.7 5.2 0.00 0.02 0.02 86 1017.5
20260506172546 53 0 1.7 5.2 0.00 0.01 0.01 86 1006.9
20260506172503 53 271 1.7 5.2 0.00 0.02 0.02 86 1017.4
20260506172048 53 272 0.9 2.6 0.00 0.01 0.01 86 1006.9
20260506172003 53 271 0.9 2.6 0.00 0.02 0.02 86 1017.4
20260506171554 53 0 0.0 2.6 0.00 0.01 0.01 85 1006.8
20260506171503 54 271 0.9 3.5 0.00 0.02 0.02 86 1017.4
20260506171047 53 0 0.0 3.5 0.00 0.01 0.01 85 1006.8
20260506171003 54 271 0.0 3.5 0.00 0.02 0.02 86 1017.4
20260506170546 53 0 0.0 3.5 0.00 0.01 0.01 85 1006.8
20260506170503 54 273 0.9 3.5 0.00 0.02 0.02 86 1017.4
20260506170218 54 272 0.9 3.5 0.00 0.02 0.02 86 1017.3
20260506170108 53 0 0.0 3.5 0.00 0.01 0.01 85 1006.9
20260506165717 54 270 0.9 3.5 0.00 0.02 0.02 86 1017.3
20260506165546 53 0 0.0 3.5 0.00 0.17 0.01 85 1006.8
20260506165046 54 0 0.0 3.5 0.00 0.17 0.01 85 1006.8
20260506165003 54 265 0.9 6.1 0.00 0.02 0.02 86 1017.3
20260506164606 54 270 1.7 6.1 0.00 0.17 0.01 85 1006.7
20260506164503 54 265 1.7 6.1 0.00 0.02 0.02 86 1017.2
20260506164046 54 263 1.7 6.1 0.00 0.17 0.01 84 1006.7
20260506164003 54 266 2.6 7.8 0.00 0.02 0.02 85 1017.2
20260506163545 54 0 3.5 7.0 0.00 0.17 0.01 84 1006.6
20260506163503 54 266 3.5 7.8 0.00 0.02 0.02 84 1017.2
20260506163100 54 277 3.5 7.8 0.00 0.17 0.01 84 1006.6
20260506163003 55 268 2.6 7.8 0.00 0.02 0.02 84 1017.2
20260506162549 54 264 1.7 7.8 0.00 0.17 0.01 84 1006.5
20260506162503 55 267 2.6 7.8 0.00 0.07 0.02 84 1017.1
20260506162046 55 278 1.7 7.0 0.00 0.17 0.01 84 1006.6
20260506162003 55 268 1.7 7.8 0.01 0.08 0.02 84 1017.2
20260506161554 55 0 0.0 7.8 0.00 0.17 0.01 84 1006.5
20260506161503 55 276 1.7 7.8 0.01 0.08 0.02 84 1017.1
20260506161217 56 274 1.7 7.8 0.01 0.09 0.02 84 1017.0
20260506161046 55 275 1.7 7.8 0.00 0.17 0.01 83 1006.5
20260506160547 55 298 0.9 7.8 0.00 0.17 0.01 84 1006.4
20260506160503 56 266 2.6 7.8 0.01 0.12 0.02 85 1016.9
20260506160059 56 260 1.7 7.8 0.00 0.17 0.01 84 1006.5
20260506160003 56 268 2.6 7.8 0.01 0.17 0.02 84 1017.0
20260506155551 56 288 1.7 7.0 0.00 0.40 0.01 84 1006.5
20260506155503 56 267 1.7 7.0 0.01 0.28 0.02 85 1017.0
20260506155047 56 269 1.7 6.1 0.00 0.40 0.01 84 1006.4
20260506155003 57 254 1.7 6.1 0.01 0.32 0.02 85 1017.0
20260506154716 57 237 1.7 6.1 0.01 0.35 0.02 85 1016.9
20260506154557 56 298 0.9 6.1 0.00 0.40 0.01 85 1006.5
20260506154048 56 201 0.9 5.2 0.00 0.40 0.01 85 1006.4
20260506154003 56 249 0.9 7.8 0.01 0.36 0.02 86 1016.9